User: anonymous   Login
Location: Bassano
(45.7667°N, 11.7333°E)
Time: 03:22:41
(UTC+00:00)
Language:

STARLINK-1312 - Orbit

View from above orbital plane
View from above orbital plane
View from above satellite
View from above satellite

Ground track
Ground track

The orbit data is extracted from the following two-line orbital elements,

1 45398U 20019AQ  20221.91667824 +.00021240 +00000-0 +14727-2 0  9993
2 45398 052.9981 299.0234 0000823 132.8569 154.4045 15.05575510001751
Epoch (UTC): 08 August 2020 22:00:01
Eccentricity: 0.0000823
inclination: 52.9981°
perigee height: 549 km
apogee height: 550 km
right ascension of ascending node: 299.0234°
argument of perigee: 132.8569°
revolutions per day: 15.05575510
mean anomaly at epoch: 154.4045°
orbit number at epoch: 175

The dashed part of the orbit path shows where the satellite is in the earth's shadow,  

DLR